Showing default

LEMUR 2 STAR-FOX, 62696

Orbit data source: Space-Track

LEMUR 2 STAR-FOX, 62696 is a payload satellite owned by Spire (US) in SSO that was launched on Tue, 14 Jan 2025 UTC via an FALCON 9 launch vehicle from the Air Force Western Test Range (AFWTR). Payload-class satellites include a variety of spacecraft equipped with specific instruments for various scientific and technological missions. These include communications satellites like Starlink; space stations such as the ISS; scientific satellites like the Hubble; Earth observation satellites from companies like Planet Labs, Umbra, and HawkEye 360; GPS; miniature CubeSats for education and research; and military/defense satellites.

Loading next visibility...
Identifier
62696, 2025-009CR
Orbit
SSO
Country
Flag of USUS
Related business
Manufacturer
Spire/Glasgow
Mission
Operational Commercial Com/MetRO
Bus & Motor
CUBESAT 3U, Unknown motor
Mass
7.6 kg wet, 7.6 kg dry
Launch date (UTC)
2025-01-14 (1 year ago)
Launch vehicle
FALCON 9
Launch site
Air Force Western Test Range (AFWTR)
Object type
Payload
Rocket body
Debris
Shape & HBR
Box + 2 Pan, 0.2 m
Radar Cross Section
0.063 m², Medium (>0.1 m² and < 1m²)

Expand to show TLE details & history
Last TLE update: 1 day ago

TLE from 1 day ago
0 LEMUR 2 STAR-FOX
1 62696U 25009CR  26170.75664247  .00006185  00000-0  46976-3 0  9997
2 62696  97.6953 252.3469 0004084 105.6897 254.4778 15.02534850 77940
Epoch: 2026-06-19T18:09Z
TLE epoch observation values (Epoch: 2026-06-19T18:09:33.909Z)
Latitude
-0.00008°
Longitude
71.97458°
Altitude
562.901 km
Speed
7.579 km/s
True Right ascension
16h 49m 23s
True Declination
0° 00' 00"
Sunlit
Object was in full shadow at epoch
Visualization orbit readout
Latitude
Unknown
Longitude
Unknown
Altitude
Unknown
Speed
Unknown
Apparent Right ascension
Unknown
Apparent Declination
Unknown
Sunlit
N/A
Visualization observer readout
Local Sidereal Time
07:18:38
Azimuth
Unknown
Elevation
Unknown
Doppler factor
Unknown
Orbital elements
Apogee altitude
558.917 km
Perigee altitude
553.253 km
Semi-major axis
6,934.222 km
Eccentricity
0.00041
Inclination
97.6953°
RAAN
252.3469°
Arg. of periapsis
105.6897°
True anomaly
254.43271°
Mean anomaly
254.4778°
Eccentric anomaly
254.45526°
Mean motion
3.75878 °/min
Orbital period
95.78 mins
BSTAR
0.00046976
Loading maneuver chart data...
Computing Atmospheric mass density...
Loading historical data...
Loading historical data...
Loading historical data...
Loading historical data...
Loading historical data...
Loading historical data...
Loading historical data...

Documentation

Showing up to 5 results
|